Hourly Weather Zygry

Today, 29 September, Tuesday

Time Temperature Precipitation Wind Pressure Humidity
00:00 +13°C° 0.1 mm 2 mps 747 mmHg 82%
01:00 +13°C° 0 mm 2 mps 747 mmHg 86%
02:00 +13°C° 0 mm 2 mps 747 mmHg 87%
03:00 +13°C° 0 mm 2 mps 746 mmHg 88%
04:00 +13°C° 0 mm 2 mps 746 mmHg 89%
05:00 +13°C° 0 mm 2 mps 746 mmHg 88%
06:00 +13°C° 0 mm 2 mps 746 mmHg 88%
07:00 +13°C° 0 mm 2 mps 747 mmHg 85%
08:00 +12°C° 0 mm 3 mps 747 mmHg 83%
09:00 +13°C° 0 mm 3 mps 747 mmHg 82%
10:00 +13°C° 0 mm 3 mps 747 mmHg 80%
11:00 +13°C° 0 mm 3 mps 747 mmHg 79%
12:00 +14°C° 0 mm 3 mps 747 mmHg 77%
13:00 +15°C° 0 mm 2 mps 747 mmHg 78%
14:00 +15°C° 0 mm 2 mps 747 mmHg 78%
15:00 +15°C° 0 mm 2 mps 747 mmHg 78%
16:00 +15°C° 0 mm 2 mps 747 mmHg 78%
17:00 +15°C° 0.2 mm 2 mps 748 mmHg 81%
18:00 +14°C° 0.2 mm 2 mps 748 mmHg 83%
19:00 +14°C° 0.2 mm 2 mps 748 mmHg 85%
20:00 +14°C° 0.1 mm 2 mps 748 mmHg 86%
21:00 +13°C° 0.1 mm 2 mps 748 mmHg 88%
22:00 +13°C° 0.1 mm 2 mps 748 mmHg 89%
23:00 +13°C° 0 mm 2 mps 748 mmHg 91%

Tomorrow, 30 September, Wednesday

Time Temperature Precipitation Wind Pressure Humidity
00:00 +13°C° 0 mm 2 mps 748 mmHg 92%
01:00 +12°C° 0 mm 3 mps 748 mmHg 93%
02:00 +11°C° 0 mm 3 mps 748 mmHg 94%
03:00 +11°C° 0 mm 3 mps 748 mmHg 94%
04:00 +11°C° 0 mm 3 mps 747 mmHg 94%
05:00 +11°C° 0 mm 3 mps 748 mmHg 92%
06:00 +11°C° 0 mm 3 mps 748 mmHg 89%
07:00 +11°C° 0 mm 3 mps 748 mmHg 87%
08:00 +12°C° 0 mm 4 mps 748 mmHg 83%
09:00 +13°C° 0 mm 4 mps 748 mmHg 79%
10:00 +14°C° 0 mm 4 mps 748 mmHg 74%
11:00 +15°C° 0 mm 4 mps 747 mmHg 73%
12:00 +16°C° 0 mm 5 mps 747 mmHg 71%
13:00 +17°C° 0 mm 5 mps 746 mmHg 69%
14:00 +17°C° 0 mm 5 mps 746 mmHg 70%
15:00 +17°C° 0 mm 4 mps 746 mmHg 72%
16:00 +17°C° 0 mm 4 mps 746 mmHg 74%
17:00 +17°C° 0 mm 4 mps 746 mmHg 75%
18:00 +15°C° 0 mm 5 mps 746 mmHg 76%
19:00 +15°C° 0 mm 5 mps 746 mmHg 78%
20:00 +14°C° 0 mm 4 mps 746 mmHg 79%
21:00 +14°C° 0 mm 4 mps 746 mmHg 81%
22:00 +14°C° 0 mm 3 mps 745 mmHg 82%
23:00 +14°C° 0.1 mm 3 mps 745 mmHg 83%

Day after tomorrow, 1 October, Thursday

Time Temperature Precipitation Wind Pressure Humidity
00:00 +14°C° 0.1 mm 3 mps 745 mmHg 85%
01:00 +13°C° 0.1 mm 3 mps 745 mmHg 86%
02:00 +13°C° 0.4 mm 3 mps 744 mmHg 88%
03:00 +13°C° 0.4 mm 3 mps 744 mmHg 90%
04:00 +12°C° 0.4 mm 4 mps 743 mmHg 92%
05:00 +12°C° 0.2 mm 3 mps 743 mmHg 91%
06:00 +12°C° 0.2 mm 3 mps 743 mmHg 90%
07:00 +12°C° 0.2 mm 3 mps 743 mmHg 89%
08:00 +13°C° 0 mm 3 mps 743 mmHg 86%
09:00 +13°C° 0 mm 3 mps 742 mmHg 82%
10:00 +14°C° 0 mm 3 mps 742 mmHg 79%
11:00 +14°C° 0 mm 3 mps 742 mmHg 76%
12:00 +14°C° 0 mm 3 mps 742 mmHg 74%
13:00 +14°C° 0 mm 3 mps 742 mmHg 72%
14:00 +14°C° 0 mm 3 mps 742 mmHg 72%
15:00 +14°C° 0 mm 3 mps 742 mmHg 73%
16:00 +14°C° 0 mm 3 mps 742 mmHg 74%
17:00 +13°C° 0 mm 3 mps 742 mmHg 76%
18:00 +13°C° 0 mm 3 mps 742 mmHg 78%
19:00 +13°C° 0 mm 2 mps 742 mmHg 80%
20:00 +13°C° 0 mm 2 mps 742 mmHg 84%
21:00 +13°C° 0 mm 2 mps 742 mmHg 87%
22:00 +12°C° 0 mm 2 mps 742 mmHg 90%
23:00 +12°C° 0 mm 2 mps 742 mmHg 92%

2 October, Friday

Time Temperature Precipitation Wind Pressure Humidity
00:00 +12°C° 0 mm 2 mps 742 mmHg 93%
01:00 +12°C° 0 mm 2 mps 742 mmHg 95%
02:00 +10°C° 0 mm 2 mps 742 mmHg 95%
03:00 +10°C° 0 mm 2 mps 742 mmHg 96%
04:00 +10°C° 0 mm 2 mps 742 mmHg 96%
05:00 +10°C° 0 mm 2 mps 742 mmHg 95%
06:00 +10°C° 0 mm 2 mps 743 mmHg 94%
07:00 +10°C° 0 mm 3 mps 743 mmHg 93%
08:00 +12°C° 0 mm 3 mps 743 mmHg 86%
09:00 +13°C° 0 mm 3 mps 743 mmHg 79%
10:00 +16°C° 0 mm 3 mps 743 mmHg 72%
11:00 +17°C° 0 mm 3 mps 743 mmHg 70%
12:00 +17°C° 0 mm 4 mps 743 mmHg 68%
13:00 +18°C° 0 mm 4 mps 743 mmHg 66%
14:00 +18°C° 0 mm 4 mps 743 mmHg 67%
15:00 +17°C° 0 mm 4 mps 743 mmHg 69%
16:00 +17°C° 0 mm 4 mps 743 mmHg 71%
17:00 +15°C° 0 mm 4 mps 743 mmHg 76%
18:00 +14°C° 0 mm 5 mps 743 mmHg 81%
19:00 +13°C° 0 mm 5 mps 743 mmHg 86%
20:00 +13°C° 0 mm 5 mps 743 mmHg 86%
21:00 +12°C° 0 mm 5 mps 743 mmHg 87%
22:00 +12°C° 0 mm 5 mps 743 mmHg 88%
23:00 +12°C° 0 mm 5 mps 742 mmHg 87%

3 October, Saturday

Time Temperature Precipitation Wind Pressure Humidity
00:00 +12°C° 0 mm 5 mps 742 mmHg 87%
01:00 +11°C° 0 mm 6 mps 742 mmHg 86%
02:00 +13°C° 0 mm 6 mps 741 mmHg 84%
03:00 +13°C° 0 mm 6 mps 741 mmHg 81%
04:00 +14°C° 0 mm 7 mps 741 mmHg 79%
05:00 +14°C° 0 mm 7 mps 740 mmHg 81%
06:00 +14°C° 0 mm 7 mps 740 mmHg 83%
07:00 +13°C° 0 mm 8 mps 740 mmHg 85%
08:00 +15°C° 0 mm 8 mps 740 mmHg 78%
09:00 +17°C° 0 mm 8 mps 739 mmHg 71%
10:00 +20°C° 0 mm 8 mps 739 mmHg 64%
11:00 +21°C° 0 mm 7 mps 739 mmHg 60%
12:00 +22°C° 0 mm 7 mps 739 mmHg 55%
13:00 +24°C° 0 mm 6 mps 739 mmHg 50%
14:00 +23°C° 0 mm 6 mps 738 mmHg 53%
15:00 +22°C° 0 mm 5 mps 738 mmHg 56%
16:00 +21°C° 0 mm 5 mps 738 mmHg 59%
17:00 +21°C° 0 mm 5 mps 738 mmHg 60%
18:00 +21°C° 0 mm 5 mps 738 mmHg 61%
19:00 +21°C° 0 mm 6 mps 738 mmHg 61%
20:00 +20°C° 0 mm 6 mps 737 mmHg 61%
21:00 +20°C° 0 mm 6 mps 737 mmHg 61%
22:00 +20°C° 0 mm 7 mps 737 mmHg 61%
23:00 +20°C° 0 mm 7 mps 736 mmHg 61%

4 October, Sunday

Time Temperature Precipitation Wind Pressure Humidity
00:00 +20°C° 0 mm 7 mps 736 mmHg 61%
01:00 +20°C° 0 mm 7 mps 736 mmHg 61%
02:00 +20°C° 0 mm 7 mps 735 mmHg 61%
03:00 +18°C° 0 mm 7 mps 735 mmHg 62%
04:00 +19°C° 0 mm 6 mps 735 mmHg 62%
05:00 +18°C° 0 mm 7 mps 735 mmHg 63%
06:00 +18°C° 0 mm 7 mps 736 mmHg 63%
07:00 +20°C° 0 mm 7 mps 736 mmHg 63%
08:00 +20°C° 0 mm 6 mps 737 mmHg 62%
09:00 +20°C° 0 mm 6 mps 738 mmHg 62%
10:00 +20°C° 0 mm 6 mps 739 mmHg 61%
11:00 +20°C° 0 mm 5 mps 739 mmHg 57%
12:00 +21°C° 0 mm 4 mps 740 mmHg 54%
13:00 +21°C° 0 mm 4 mps 740 mmHg 51%
14:00 +21°C° 0 mm 3 mps 741 mmHg 52%
15:00 +21°C° 0 mm 2 mps 741 mmHg 54%
16:00 +20°C° 0 mm 2 mps 741 mmHg 55%
17:00 +19°C° 0 mm 2 mps 741 mmHg 58%
18:00 +18°C° 0 mm 2 mps 742 mmHg 61%
19:00 +18°C° 0 mm 1 mps 742 mmHg 64%
20:00 +16°C° 0 mm 2 mps 742 mmHg 64%
21:00 +16°C° 0 mm 2 mps 742 mmHg 65%
22:00 +16°C° 0 mm 3 mps 742 mmHg 65%
23:00 +14°C° 0 mm 3 mps 742 mmHg 66%
Show more